FENGYUN 1C DEB

Satellite information

Favourite Embed

Satellite Type and Status

DEBRISIN ORBIT

Key statistics

Satellite FENGYUN 1C DEB at a glance.

Uptime

9668

Days in orbit

Revolutions

≈ 14.3

Per day

Orbit

SSO

Sun Synchronous Orbit

Inclination

98.7

Latest

Satellite identification and parameters

Extended collection of information and parameters for FENGYUN 1C DEB.

Object identification

Identified? True

Debris? True

Object name: FENGYUN 1C DEB

International designator: 1999-025GH

Object number (NORAD): 29887

Object ID (CCSDS): 29887

Country: PEOPLES REPUBLIC OF CHINA (PRC)

Current information (Y/N): Y

RCS size: SMALL

Orbital parameters

Period: 100.466 minutes

Inclination: 98.7204 deg

SMA: 7158.782 km

Apoapsis: 987.957 km

Periapsis: 573.336 km

RAAN: 21.432 deg

Eccentricy: 0.0289589

Argument of periapsis: 136.0371 deg

Mean anomaly: 290.0706 deg

Mean motion: 14.33323069 rev/day

Mean motion (dot): 0.00005001 rev/day2

B* drag term: 0.0011463 1/REarth

Two-line elements (TLE)

Creation date: Oct. 27, 2025, 2:46 p.m.

Reference frame: TEME

Reference center: EARTH

Epoch: Oct. 27, 2025, 5:36 a.m. UTC

TLE line 0: 0 FENGYUN 1C DEB

TLE line 1: 1 29887U 99025GH 25300.23378257 .00005001 00000-0 11463-2 0 9999

TLE line 2: 2 29887 98.7204 21.4320 0289589 136.0371 290.0706 14.33323069973085

Live tracking on map

Real-time ground track for satellite FENGYUN 1C DEB.

In-orbit conjunctions

A list of the most updated potential collisions computed for object FENGYUN 1C DEB.

Target Orbit TCA Probability of collision Miss distance Type
CZ-6A DEB LEO 2024-12-16 06:22:45 0.000365296 816.0 (m) DEBRIS
PICOSAT 6 SSO 2024-06-25 18:00:38 0.000106241 741.0 (m) PAYLOAD

Associated space launch

Chinese polar orbiting meteorological satellite

FENGYUN 1C DEB was lifted into orbit during the mission ‘Long March 4B | Feng Yun 1C’, on board a Long March 4B space rocket.

The launch took place on May 10, 1999, 1:33 a.m. from Launch Complex 7.

For more information about the launch, click the button.

Launch to space Long March 4B | Feng Yun 1C
Long March 4B | Feng Yun 1C

Agency: N/A

Status: Launch Successful

Launch date: May 10, 1999, 1:33 a.m. UTC

Rocket: Long March 4B

Launch pad: Launch Complex 7

Location: Taiyuan Satellite Launch Center, People's Republic of China

...

Latest news about this satellite

There are no fresh news available about this satellite. Check back as we update our databases every day.


Newsletter sign-up

Weekly statistics, charts and insights to help you stay on top of the space industry.